When you browse on this site, cookies collect data to enhance your experience and personalize the content and advertising you see.
Visit our Privacy Policy to learn more. By continuing to use the site, you agree to this use of cookies and data.
  • In Czech Republic
  • List of Countries
  • For 7 days
  • Water Temperature
  • Weather Map
  • Weather Widgets
  • user-avatar
    Login

    Hourly Weather Tibissa

    Today, 12 November, Tuesday

    Time Temperature Precipitation Wind Pressure Humidity
    00:00 +5°C° 0.3 mm 2 mps 672 mmHg 85%
    01:00 +5°C° 0.3 mm 1 mps 672 mmHg 87%
    02:00 +4°C° 0.2 mm 2 mps 671 mmHg 88%
    03:00 +3°C° 0.2 mm 3 mps 671 mmHg 89%
    04:00 +3°C° 0.2 mm 4 mps 671 mmHg 90%
    05:00 +3°C° 0.8 mm 5 mps 671 mmHg 88%
    06:00 +3°C° 0.8 mm 5 mps 671 mmHg 86%
    07:00 +5°C° 0.8 mm 5 mps 671 mmHg 85%
    08:00 +4°C° 1.4 mm 6 mps 671 mmHg 86%
    09:00 +5°C° 1.4 mm 6 mps 672 mmHg 88%
    10:00 +5°C° 1.4 mm 7 mps 672 mmHg 89%
    11:00 +5°C° 1.5 mm 10 mps 672 mmHg 88%
    12:00 +5°C° 1.5 mm 12 mps 672 mmHg 86%
    13:00 +5°C° 1.5 mm 15 mps 673 mmHg 85%
    14:00 +5°C° 0.2 mm 15 mps 673 mmHg 80%
    15:00 +4°C° 0.2 mm 16 mps 674 mmHg 76%
    16:00 +4°C° 0.2 mm 16 mps 674 mmHg 71%
    17:00 +4°C° 0 mm 15 mps 675 mmHg 74%
    18:00 +4°C° 0 mm 15 mps 675 mmHg 76%
    19:00 +4°C° 0 mm 14 mps 676 mmHg 78%
    20:00 +3°C° 0 mm 14 mps 676 mmHg 79%
    21:00 +3°C° 0 mm 14 mps 676 mmHg 81%
    22:00 +3°C° 0 mm 14 mps 677 mmHg 82%
    23:00 +3°C° 0 mm 12 mps 677 mmHg 84%

    Tomorrow, 13 November, Wednesday

    Time Temperature Precipitation Wind Pressure Humidity
    00:00 +2°C° 0 mm 9 mps 677 mmHg 85%
    01:00 +3°C° 0 mm 7 mps 677 mmHg 87%
    02:00 +3°C° 0 mm 7 mps 678 mmHg 86%
    03:00 +4°C° 0 mm 7 mps 678 mmHg 86%
    04:00 +4°C° 0 mm 7 mps 678 mmHg 85%
    05:00 +4°C° 0 mm 6 mps 678 mmHg 85%
    06:00 +3°C° 0 mm 5 mps 678 mmHg 85%
    07:00 +4°C° 0 mm 4 mps 679 mmHg 84%
    08:00 +5°C° 0 mm 4 mps 679 mmHg 75%
    09:00 +7°C° 0 mm 4 mps 680 mmHg 66%
    10:00 +8°C° 0 mm 4 mps 680 mmHg 57%
    11:00 +9°C° 0 mm 5 mps 680 mmHg 54%
    12:00 +10°C° 0 mm 6 mps 680 mmHg 50%
    13:00 +11°C° 0 mm 7 mps 680 mmHg 46%
    14:00 +11°C° 0 mm 7 mps 680 mmHg 49%
    15:00 +10°C° 0 mm 7 mps 680 mmHg 52%
    16:00 +10°C° 0 mm 7 mps 679 mmHg 55%
    17:00 +9°C° 0 mm 6 mps 679 mmHg 60%
    18:00 +8°C° 0 mm 6 mps 679 mmHg 64%
    19:00 +7°C° 0 mm 5 mps 680 mmHg 69%
    20:00 +7°C° 0 mm 5 mps 680 mmHg 70%
    21:00 +7°C° 0 mm 5 mps 680 mmHg 71%
    22:00 +7°C° 0 mm 5 mps 680 mmHg 72%
    23:00 +7°C° 0 mm 5 mps 680 mmHg 73%

    Day after tomorrow, 14 November, Thursday

    Time Temperature Precipitation Wind Pressure Humidity
    00:00 +7°C° 0 mm 5 mps 680 mmHg 74%
    01:00 +7°C° 0 mm 6 mps 680 mmHg 75%
    02:00 +7°C° 0 mm 5 mps 679 mmHg 76%
    03:00 +7°C° 0 mm 5 mps 679 mmHg 78%
    04:00 +7°C° 0 mm 4 mps 679 mmHg 79%
    05:00 +6°C° 0 mm 4 mps 679 mmHg 82%
    06:00 +6°C° 0 mm 4 mps 680 mmHg 84%
    07:00 +6°C° 0 mm 4 mps 680 mmHg 86%
    08:00 +8°C° 0 mm 3 mps 680 mmHg 77%
    09:00 +10°C° 0 mm 3 mps 681 mmHg 69%
    10:00 +11°C° 0 mm 3 mps 681 mmHg 60%
    11:00 +12°C° 0 mm 4 mps 681 mmHg 54%
    12:00 +14°C° 0 mm 5 mps 681 mmHg 47%
    13:00 +15°C° 0 mm 6 mps 681 mmHg 41%
    14:00 +14°C° 0 mm 7 mps 680 mmHg 46%
    15:00 +14°C° 0 mm 7 mps 680 mmHg 50%
    16:00 +12°C° 0 mm 8 mps 679 mmHg 55%
    17:00 +11°C° 0 mm 7 mps 679 mmHg 61%
    18:00 +10°C° 0 mm 7 mps 679 mmHg 67%
    19:00 +9°C° 0 mm 6 mps 679 mmHg 73%
    20:00 +9°C° 0 mm 6 mps 679 mmHg 74%
    21:00 +8°C° 0 mm 5 mps 679 mmHg 75%
    22:00 +8°C° 0 mm 5 mps 679 mmHg 76%
    23:00 +8°C° 0 mm 5 mps 678 mmHg 73%

    15 November, Friday

    Time Temperature Precipitation Wind Pressure Humidity
    00:00 +8°C° 0 mm 5 mps 678 mmHg 71%
    01:00 +8°C° 0 mm 5 mps 678 mmHg 69%
    02:00 +8°C° 0 mm 5 mps 678 mmHg 69%
    03:00 +8°C° 0 mm 5 mps 677 mmHg 69%
    04:00 +8°C° 0 mm 5 mps 677 mmHg 69%
    05:00 +8°C° 0 mm 5 mps 677 mmHg 70%
    06:00 +8°C° 0 mm 5 mps 677 mmHg 70%
    07:00 +7°C° 0 mm 5 mps 677 mmHg 71%
    08:00 +9°C° 0 mm 6 mps 677 mmHg 64%
    09:00 +10°C° 0 mm 6 mps 678 mmHg 57%
    10:00 +11°C° 0 mm 7 mps 678 mmHg 51%
    11:00 +12°C° 0 mm 8 mps 678 mmHg 47%
    12:00 +13°C° 0 mm 9 mps 678 mmHg 43%
    13:00 +15°C° 0 mm 9 mps 678 mmHg 40%
    14:00 +15°C° 0 mm 9 mps 678 mmHg 40%
    15:00 +15°C° 0 mm 9 mps 678 mmHg 40%
    16:00 +13°C° 0 mm 9 mps 677 mmHg 41%
    17:00 +12°C° 0 mm 7 mps 677 mmHg 47%
    18:00 +12°C° 0 mm 5 mps 678 mmHg 53%
    19:00 +11°C° 0 mm 4 mps 678 mmHg 59%
    20:00 +10°C° 0 mm 3 mps 678 mmHg 61%
    21:00 +10°C° 0 mm 2 mps 678 mmHg 63%
    22:00 +10°C° 0 mm 1 mps 678 mmHg 65%
    23:00 +10°C° 0 mm 1 mps 678 mmHg 66%

    16 November, Saturday

    Time Temperature Precipitation Wind Pressure Humidity
    00:00 +10°C° 0 mm 1 mps 678 mmHg 67%
    01:00 +9°C° 0 mm 0 mps 678 mmHg 68%
    02:00 +10°C° 0 mm 1 mps 677 mmHg 70%
    03:00 +9°C° 0 mm 1 mps 677 mmHg 72%
    04:00 +8°C° 0 mm 2 mps 676 mmHg 74%
    05:00 +8°C° 0.1 mm 2 mps 676 mmHg 77%
    06:00 +7°C° 0.1 mm 2 mps 676 mmHg 80%
    07:00 +7°C° 0.1 mm 2 mps 676 mmHg 83%
    08:00 +7°C° 0.1 mm 2 mps 676 mmHg 81%
    09:00 +7°C° 0.1 mm 2 mps 676 mmHg 80%
    10:00 +9°C° 0.1 mm 1 mps 676 mmHg 78%
    11:00 +9°C° 0 mm 3 mps 676 mmHg 72%
    12:00 +10°C° 0 mm 4 mps 676 mmHg 65%
    13:00 +10°C° 0 mm 5 mps 676 mmHg 58%
    14:00 +10°C° 0 mm 6 mps 676 mmHg 56%
    15:00 +9°C° 0 mm 7 mps 676 mmHg 54%
    16:00 +9°C° 0 mm 8 mps 676 mmHg 52%
    17:00 +7°C° 0.1 mm 8 mps 677 mmHg 59%
    18:00 +5°C° 0.1 mm 8 mps 677 mmHg 66%
    19:00 +4°C° 0.1 mm 8 mps 677 mmHg 73%
    20:00 +4°C° 0 mm 8 mps 678 mmHg 73%
    21:00 +2°C° 0 mm 8 mps 679 mmHg 74%
    22:00 +2°C° 0 mm 8 mps 679 mmHg 74%
    23:00 +2°C° 0 mm 8 mps 679 mmHg 76%

    17 November, Sunday

    Time Temperature Precipitation Wind Pressure Humidity
    00:00 +3°C° 0 mm 7 mps 680 mmHg 78%
    01:00 +2°C° 0 mm 6 mps 680 mmHg 80%
    02:00 +2°C° 0 mm 6 mps 680 mmHg 80%
    03:00 +2°C° 0 mm 5 mps 680 mmHg 80%
    04:00 +3°C° 0 mm 4 mps 680 mmHg 81%
    05:00 +1°C° 0 mm 4 mps 681 mmHg 79%
    06:00 +1°C° 0 mm 4 mps 681 mmHg 78%
    07:00 +2°C° 0 mm 3 mps 682 mmHg 76%
    08:00 +3°C° 0 mm 3 mps 682 mmHg 66%
    09:00 +5°C° 0 mm 4 mps 683 mmHg 56%
    10:00 +7°C° 0 mm 4 mps 684 mmHg 46%
    11:00 +8°C° 0 mm 4 mps 684 mmHg 39%
    12:00 +10°C° 0 mm 4 mps 684 mmHg 33%
    13:00 +10°C° 0 mm 5 mps 684 mmHg 27%
    14:00 +10°C° 0 mm 5 mps 684 mmHg 27%
    15:00 +10°C° 0 mm 5 mps 684 mmHg 27%
    16:00 +10°C° 0 mm 5 mps 684 mmHg 27%
    17:00 +10°C° 0 mm 4 mps 684 mmHg 34%
    18:00 +7°C° 0 mm 4 mps 684 mmHg 42%
    19:00 +7°C° 0 mm 3 mps 684 mmHg 49%
    20:00 +5°C° 0 mm 3 mps 684 mmHg 51%
    21:00 +6°C° 0 mm 2 mps 684 mmHg 52%
    22:00 +5°C° 0 mm 2 mps 685 mmHg 53%
    23:00 +5°C° 0 mm 2 mps 684 mmHg 53%
    Show more